{"data":{"norad_id":65568,"intl_designator":"2025-203D","name":"PRAETORIAN SDA_605","alt_names":[],"object_type":"PAYLOAD","status":"ACTIVE","operator":null,"country":"US","launch_date":"2025-09-10","launch_site_code":"AFWTR","launch_vehicle":null,"mission":null,"orbit_class":"UNKNOWN","rcs_meters":null,"size_class":null,"mass_kg":null,"dimensions":null,"purposes":["military"],"wikipedia_slug":null,"has_3d_model":false,"image_url":null,"decayed_at":null,"tle_current":{"epoch":"2026-09-20T00:14:53.956608Z","epoch_age_seconds":56735,"freshness":"FRESH","line1":"1 65568U 25203D   26263.01034672  .00000057  00000+0  41058-4 0  9997","line2":"2 65568  81.2983 283.0800 0007245 299.2964  60.7468 13.83134253 51801","mean_motion":13.83134253,"eccentricity":0.0007245,"inclination_deg":81.2983,"raan_deg":283.08,"arg_perigee_deg":299.2964,"mean_anomaly_deg":60.7468,"bstar":4.1058e-5,"rev_number":5180,"period_min":104.11136857298,"perigee_km":947.47967639979,"apogee_km":958.10219097571,"semimajor_km":7330.9279336877,"source":"CELESTRAK","updated_at":"2026-09-20T09:00:47.714612Z"}}}